[[{"header":{"parameterUnit":"m.s-1","parameterCategory":1,"la1":30.2991,"la2":30.254,"lo1":-89.0895,"lo2":-89.0444,"dy":0.0017,"dx":0.0017,"nx":28,"ny":28,"refTime":"2024-09-30T21:00:00:Z","depth":0,"parameterNumber":2,"parameterNumberName":"U-component_of_WINDS"},"data":[0,0,0,0,0,0,0,0,0,0,0,0,0,0,0,0,0,0,0,0,0,0,0,0,0,0,0,0,0,0,0,0,0,0,0,0,0,0,0,0,0,0,0,0,0,0,0,0,0,0,0,0,0,0,0,0,0,0,0.4383,0.4385,0,0.4552,0.4554,0.4556,0.4619,0.4619,0.4618,0.4618,0.4794,0.4799,0.4804,0,0,0,0,0,0,0,0,0,0,0,0,0,0.4116,0.412,0.4383,0.4385,0.4387,0.4552,0.4554,0.4556,0.4619,0.4619,0.4618,0.4617,0.4792,0.4798,0.4804,0,0,0,0,0,0,0,0,0,0,0,0,0,0.4253,0.4122,0.4382,0.4438,0.4445,0.4551,0.4554,0.4557,0.4619,0.4619,0.4618,0.4617,0.479,0.4797,0.4805,0.4869,0,0,0.4829,0.4832,0,0,0,0,0,0,0,0,0.4245,0.4263,0.4428,0.4434,0.4442,0.4564,0.4524,0.4662,0.462,0.4553,0.4618,0.4617,0.4718,0.4732,0.4765,0.4878,0.4885,0.483,0.4834,0.4838,0.484,0,0,0,0,0,0,0,0.4235,0.4256,0.445,0.443,0.4439,0.4455,0.4474,0.4551,0.4638,0.4559,0.4564,0.4583,0.4722,0.4757,0.477,0.4888,0.4829,0.4836,0.4841,0.4844,0.506,0.5061,0,0,0,0,0,0,0.4216,0.4247,0.4444,0.4455,0.4339,0.4461,0.4481,0.4525,0.4637,0.4654,0.4583,0.4585,0.4745,0.4761,0.4776,0.4859,0.4838,0.4845,0.4849,0.5059,0.5061,0.5062,0,0,0,0,0,0,0.421,0.4233,0.4438,0.4353,0.438,0.4466,0.4515,0.4529,0.4565,0.4656,0.4672,0.4604,0.4745,0.4765,0.4845,0.4865,0.4848,0.4855,0.5058,0.506,0.5061,0.5023,0,0,0,0,0,0,0.4202,0.4231,0.4256,0.4353,0.4384,0.4503,0.4516,0.4533,0.4578,0.4582,0.4679,0.4695,0.4746,0.4833,0.4853,0.4876,0.4862,0.5057,0.5059,0.5061,0.5023,0.5023,0.5024,0,0,0,0,0,0.4193,0.4239,0.4257,0.428,0.4417,0.4504,0.4522,0.4579,0.4579,0.4605,0.4664,0.4692,0.486,0.4841,0.4864,0.4889,0.5056,0.5058,0.5061,0.5023,0.5023,0.5024,0,0,0,0,0,0,0.4144,0.4253,0.4274,0.4353,0.4418,0.4515,0.455,0.4578,0.4646,0.4647,0.4715,0.4736,0.4811,0.4858,0.4835,0.4957,0.496,0.4967,0.4923,0.4924,0.4925,0.4912,0.4868,0,0,0,0,0,0.4142,0.4203,0.4295,0.4356,0.4388,0.4463,0.4503,0.4541,0.4612,0.4641,0.4705,0.4774,0.4842,0.4886,0.4954,0.503,0.5052,0.5059,0.5059,0.5058,0.5064,0.5107,0.5111,0.507,0.507,0.507,0,0,0.414,0.4207,0.4241,0.4348,0.4404,0.4466,0.4486,0.4551,0.4598,0.4651,0.473,0.4779,0.4861,0.4939,0.4976,0.498,0.508,0.5061,0.5061,0.5067,0.511,0.5114,0.5117,0.5071,0.5071,0.5071,0,0,0.4167,0.4223,0.428,0.4335,0.4418,0.4467,0.448,0.4572,0.4606,0.4687,0.4727,0.4784,0.4901,0.4957,0.5,0.5046,0.5075,0.5067,0.5068,0.511,0.5113,0.5116,0.5133,0.5138,0.5072,0.5072,0.5072,0,0.4154,0.4248,0.4306,0.4369,0.4414,0.4463,0.4521,0.4572,0.4673,0.4704,0.4706,0.4852,0.4911,0.5002,0.5013,0.5047,0.5065,0.5057,0.5108,0.5112,0.5116,0.5132,0.5138,0.507,0.507,0.5071,0.5071,0,0.4228,0.4292,0.4328,0.4423,0.4473,0.4533,0.46,0.4644,0.4676,0.4725,0.4806,0.4877,0.496,0.4984,0.5018,0.5081,0.508,0.5094,0.5099,0.5117,0.5134,0.514,0.5068,0.5069,0.5069,0.5069,0,0,0.4231,0.4355,0.4368,0.4411,0.4505,0.4557,0.4619,0.4699,0.4734,0.4802,0.4856,0.4952,0.4966,0.5015,0.5055,0.5091,0.5123,0.5101,0.5104,0.5103,0.5196,0.5185,0.5192,0.5142,0.5143,0.5144,0.519,0,0.4271,0.4383,0.4436,0.4524,0.4585,0.4631,0.4685,0.4749,0.4796,0.4854,0.4907,0.4974,0.4986,0.5016,0.5054,0.5111,0.5143,0.5108,0.5193,0.5195,0.5172,0.5201,0.519,0.5229,0.5196,0.5198,0.5198,0,0.4333,0.4399,0.4493,0.4579,0.4607,0.4654,0.4731,0.4786,0.4859,0.4891,0.4944,0.4983,0.505,0.5048,0.5142,0.5117,0.5155,0.5188,0.5191,0.5202,0.5198,0.5213,0.5243,0.5249,0.5209,0.5208,0.5208,0,0.4325,0.4438,0.4509,0.4545,0.4647,0.4679,0.4723,0.4795,0.4839,0.4907,0.4936,0.501,0.5051,0.5108,0.5165,0.5159,0.5253,0.5257,0.5282,0.528,0.53,0.5298,0.5338,0.5323,0.5323,0.5323,0.5323,0,0.4365,0.4421,0.4507,0.455,0.4614,0.4674,0.4736,0.4784,0.4847,0.4902,0.4946,0.4996,0.5068,0.5127,0.5173,0.5243,0.5261,0.5289,0.53,0.5285,0.5282,0.5312,0.5311,0.5325,0.5324,0.5324,0.5324,0,0.4368,0.4428,0.4508,0.4598,0.4621,0.4664,0.4741,0.4786,0.4833,0.4901,0.4921,0.4997,0.5068,0.513,0.5226,0.5256,0.5328,0.5342,0.5303,0.5309,0.5331,0.5328,0.5392,0.5403,0.538,0.538,0.538,0,0.439,0.4434,0.4527,0.4566,0.4609,0.4671,0.4716,0.4776,0.4821,0.4907,0.494,0.5015,0.5078,0.519,0.5254,0.5327,0.5343,0.536,0.5354,0.5338,0.5344,0.5341,0.5345,0.536,0.536,0.536,0.536,0,0.4422,0.4449,0.4511,0.4583,0.4635,0.4695,0.4757,0.4786,0.4858,0.4906,0.4979,0.5027,0.5123,0.5197,0.5276,0.5323,0.5354,0.5361,0.5371,0.5356,0.5332,0.5346,0.5304,0.536,0.536,0.536,0.536,0.536,0.4436,0.4477,0.4548,0.4616,0.4668,0.4724,0.4769,0.4822,0.4884,0.4966,0.4998,0.5072,0.5143,0.5253,0.5299,0.5358,0.5364,0.5378,0.5381,0.5384,0.5381,0.5321,0.5373,0.5373,0.5373,0.5373,0.5373,0,0.4471,0.4518,0.458,0.4663,0.4716,0.4739,0.4808,0.4851,0.4915,0.4978,0.5039,0.5122,0.5193,0.5262,0.5336,0.5371,0.5387,0.5388,0.5387,0.5397,0.5372,0.5357,0.5374,0.5374,0.5374,0.5374,0.5374,0.5374,0.4495,0.4565,0.46,0.4696,0.4744,0.4816,0.4853,0.4905,0.4955,0.5046,0.5105,0.5148,0.5214,0.5294,0.536,0.5378,0.5404,0.5402,0.5424,0.54,0.5399,0.5398,0.5384,0.5406,0.5406,0.5444,0.5444,0.5444]},{"header":{"parameterUnit":"m.s-1","parameterCategory":1,"la1":30.2991,"la2":30.254,"lo1":-89.0895,"lo2":-89.0444,"dy":0.0017,"dx":0.0017,"nx":28,"ny":28,"refTime":"2024-09-30T21:00:00:Z","depth":0,"parameterNumber":3,"parameterNumberName":"V-component_of_WINDS"},"data":[0,0,0,0,0,0,0,0,0,0,0,0,0,0,0,0,0,0,0,0,0,0,0,0,0,0,0,0,0,0,0,0,0,0,0,0,0,0,0,0,0,0,0,0,0,0,0,0,0,0,0,0,0,0,0,0,0,0,0.8676,0.8675,0,0.8639,0.8638,0.8638,0.861,0.861,0.861,0.8609,0.8569,0.8568,0.8567,0,0,0,0,0,0,0,0,0,0,0,0,0,0.8719,0.8718,0.8676,0.8675,0.8675,0.8639,0.8638,0.8638,0.861,0.861,0.861,0.8609,0.8569,0.8568,0.8567,0,0,0,0,0,0,0,0,0,0,0,0,0,0.8693,0.8718,0.8676,0.8657,0.8655,0.8639,0.8638,0.8638,0.861,0.861,0.861,0.8609,0.8569,0.8568,0.8567,0.8566,0,0,0.8563,0.8562,0,0,0,0,0,0,0,0,0.8694,0.8691,0.866,0.8658,0.8656,0.8629,0.8639,0.8614,0.861,0.8627,0.8609,0.8609,0.8589,0.8586,0.858,0.8564,0.8563,0.8563,0.8562,0.8562,0.8561,0,0,0,0,0,0,0,0.8696,0.8693,0.8661,0.8659,0.8657,0.8649,0.8645,0.8634,0.861,0.8626,0.8623,0.862,0.8588,0.8581,0.8579,0.8562,0.8563,0.8562,0.8561,0.856,0.8543,0.8543,0,0,0,0,0,0,0.8701,0.8694,0.8662,0.866,0.8675,0.8648,0.8644,0.8638,0.861,0.8606,0.862,0.8619,0.8583,0.858,0.8577,0.8574,0.8562,0.856,0.856,0.8543,0.8543,0.8543,0,0,0,0,0,0,0.8702,0.8699,0.8664,0.8676,0.8671,0.8648,0.8641,0.8637,0.8631,0.8606,0.8602,0.8618,0.8583,0.8579,0.8569,0.8572,0.856,0.8559,0.8542,0.8543,0.8543,0.8568,0,0,0,0,0,0,0.8704,0.8699,0.87,0.8677,0.8671,0.8657,0.8642,0.8637,0.8629,0.8627,0.8603,0.8599,0.8582,0.8571,0.8568,0.857,0.8558,0.8542,0.8542,0.8543,0.8567,0.8569,0.8571,0,0,0,0,0,0.8705,0.8708,0.87,0.8696,0.8671,0.8658,0.8654,0.8636,0.8629,0.8629,0.8613,0.8599,0.8572,0.857,0.8566,0.8568,0.8541,0.8542,0.8543,0.8566,0.8569,0.8571,0,0,0,0,0,0,0.873,0.8704,0.8695,0.869,0.8677,0.8653,0.8652,0.864,0.8627,0.8625,0.8603,0.8598,0.859,0.8578,0.8576,0.8565,0.8555,0.8555,0.8574,0.8576,0.8579,0.8581,0.8556,0,0,0,0,0,0.8736,0.8728,0.8705,0.8703,0.8696,0.8676,0.8669,0.8656,0.8641,0.8634,0.8618,0.8602,0.859,0.8583,0.857,0.8565,0.8558,0.8564,0.8566,0.8568,0.8568,0.8563,0.8565,0.8545,0.8545,0.8545,0,0,0.8746,0.8731,0.8727,0.8708,0.8695,0.8687,0.8671,0.8663,0.8656,0.8633,0.8623,0.861,0.8591,0.8583,0.8579,0.8573,0.8572,0.8569,0.8571,0.857,0.8564,0.8566,0.8568,0.8546,0.8546,0.8546,0,0,0.876,0.8748,0.8745,0.8733,0.8715,0.8701,0.87,0.8678,0.8669,0.8659,0.8641,0.8632,0.8612,0.8599,0.859,0.8598,0.8585,0.8595,0.8607,0.8602,0.8604,0.8605,0.8607,0.8609,0.8595,0.8595,0.8595,0,0.8775,0.8762,0.8744,0.8737,0.8729,0.8708,0.8704,0.8693,0.8672,0.8666,0.866,0.8633,0.8619,0.8608,0.861,0.8603,0.8601,0.8597,0.8605,0.8606,0.8607,0.8609,0.861,0.8596,0.8596,0.8596,0.8596,0,0.8781,0.8773,0.8772,0.8752,0.8744,0.8738,0.8718,0.8711,0.8699,0.8685,0.8675,0.8657,0.864,0.8636,0.8624,0.8623,0.862,0.861,0.8599,0.8611,0.8612,0.8613,0.8598,0.8598,0.8597,0.8597,0,0,0.881,0.8781,0.8781,0.8771,0.875,0.8742,0.8735,0.872,0.8714,0.8699,0.8692,0.8675,0.8666,0.8655,0.8641,0.8638,0.8645,0.8628,0.8627,0.8631,0.8641,0.8648,0.865,0.8636,0.8636,0.8636,0.8642,0,0.8821,0.8808,0.8791,0.8784,0.8775,0.8755,0.8749,0.8734,0.8721,0.8711,0.8696,0.8684,0.8673,0.8666,0.8662,0.8645,0.8646,0.8644,0.8628,0.8627,0.8633,0.865,0.8658,0.8665,0.8643,0.8643,0.8643,0,0.8831,0.8819,0.8811,0.8789,0.8785,0.878,0.8764,0.8755,0.8737,0.8728,0.8716,0.8701,0.8691,0.8682,0.8667,0.8666,0.8658,0.8649,0.8648,0.8646,0.8636,0.8648,0.8667,0.8668,0.8644,0.8644,0.8644,0,0.8853,0.8834,0.8826,0.8819,0.8794,0.8791,0.878,0.8762,0.8754,0.8739,0.8733,0.8717,0.8709,0.8696,0.8677,0.8672,0.8664,0.8653,0.8655,0.8655,0.8654,0.8654,0.8672,0.8649,0.8649,0.8649,0.8649,0,0.8866,0.8861,0.8835,0.8831,0.8825,0.8805,0.8799,0.8787,0.8771,0.8763,0.8744,0.8736,0.8712,0.8701,0.8685,0.8675,0.8671,0.8662,0.8658,0.8664,0.8665,0.8658,0.8657,0.865,0.865,0.865,0.865,0,0.8889,0.8871,0.8862,0.8839,0.8833,0.883,0.881,0.8804,0.8789,0.8779,0.8775,0.8752,0.8738,0.8718,0.8697,0.8687,0.8679,0.8672,0.8685,0.8682,0.8685,0.8685,0.8699,0.8699,0.8677,0.8678,0.8678,0,0.8898,0.8895,0.8872,0.8865,0.8855,0.8845,0.8837,0.8816,0.8808,0.8788,0.8784,0.8769,0.8755,0.8733,0.8714,0.8698,0.8691,0.8697,0.8688,0.8694,0.869,0.8691,0.869,0.8699,0.8699,0.8699,0.8699,0,0.8917,0.8908,0.8897,0.8883,0.8874,0.8861,0.8848,0.8843,0.882,0.8811,0.8797,0.8787,0.8766,0.8751,0.8732,0.8719,0.8705,0.8702,0.8702,0.8707,0.8715,0.871,0.869,0.8702,0.8702,0.8702,0.8701,0.8701,0.8933,0.8928,0.8912,0.89,0.8888,0.8875,0.8869,0.8854,0.8842,0.8824,0.8813,0.8799,0.878,0.8754,0.8742,0.873,0.8724,0.8724,0.8723,0.8723,0.8725,0.8717,0.8726,0.8726,0.8726,0.8726,0.8726,0,0.895,0.8938,0.8927,0.891,0.89,0.8889,0.8873,0.8865,0.8854,0.8838,0.8826,0.8809,0.8794,0.8773,0.8756,0.8751,0.8744,0.8747,0.8747,0.8744,0.8732,0.8734,0.8753,0.8753,0.8753,0.8753,0.8753,0.8753,0.8958,0.895,0.8939,0.8924,0.8912,0.89,0.8891,0.888,0.8867,0.885,0.8837,0.8825,0.8806,0.8788,0.8773,0.8767,0.8761,0.8767,0.8759,0.8747,0.8745,0.8743,0.8744,0.8766,0.8766,0.8772,0.8772,0.8772]}]]